Denton, TX

7:20 PM CST on January 22, 2017 (GMT -0600)
Denton Municipal

Weather History for KDTO - October, 2012

Change the Weather History Date:

Thursday, October 18, 2012

  Actual Average Record
Temperature  
Mean Temperature 60 °F -  
Max Temperature 73 °F 75 °F 93 °F (2005)
Min Temperature 46 °F 51 °F 41 °F (1996)
Degree Days  
Heating Degree Days 6    
Growing Degree Days 10 (Base 50)    
Moisture  
Dew Point 32 °F    
Average Humidity 40    
Maximum Humidity 71    
Minimum Humidity 15    
Precipitation  
Precipitation 0.00 in - - ()
Sea Level Pressure  
Sea Level Pressure 29.95 in    
Wind  
Wind Speed 7 mph (NNW)    
Max Wind Speed 12 mph    
Max Gust Speed 17 mph    
Visibility 10 miles    
Events      
Averages and records for this station are not official NWS values.
T = Trace of Precipitation, MM = Missing Value Source: NWS Daily Summary

Daily Weather History Graph

Daily Weather History Graph

Search for Another Location

Airport or City:

Trip Planner

Search our weather history database for the weather conditions in past years. The results will help you decide how hot, cold, wet, or windy it might be!

Date:

Astronomy

Oct. 18, 2012 Rise Set
Actual Time 7:35 AM CDT 6:51 PM CDT
Civil Twilight 7:10 AM CDT 7:16 PM CDT
Nautical Twilight 6:42 AM CDT 7:45 PM CDT
Astronomical Twilight 6:13 AM CDT 8:13 PM CDT
Moon 11:08 AM CDT (10/18) 9:37 PM CDT (10/18)
Length of Visible Light 12h 05m
Length of Day
11h 15m
Waxing Crescent, 14% of the Moon is Illuminated
Oct 18
Waxing Crescent
Oct 21
First Quarter
Oct 29
Full
Nov 6
Last Quarter
Nov 13
New

Hourly Weather History & Observations

Time (CDT) Temp. Windchill Dew Point Humidity Pressure Visibility Wind Dir Wind Speed Gust Speed Precip Events Conditions
12:53 AM 60.1 °F - 43.0 °F 53% 29.81 in 10.0 mi North 10.4 mph - N/A   Clear
1:53 AM 59.0 °F - 39.0 °F 48% 29.84 in 10.0 mi North 10.4 mph - N/A   Clear
2:53 AM 57.0 °F - 39.0 °F 51% 29.85 in 10.0 mi North 6.9 mph - N/A   Clear
3:53 AM 54.0 °F - 37.9 °F 55% 29.86 in 10.0 mi North 5.8 mph - N/A   Clear
4:53 AM 52.0 °F - 36.0 °F 54% 29.88 in 10.0 mi NNW 3.5 mph - N/A   Clear
5:53 AM 48.9 °F - 36.0 °F 61% 29.90 in 10.0 mi North 4.6 mph - N/A   Clear
6:53 AM 46.9 °F - 37.0 °F 68% 29.93 in 10.0 mi NNW 5.8 mph - N/A   Clear
7:53 AM 46.0 °F 43.9 °F 37.0 °F 71% 29.95 in 10.0 mi NNW 4.6 mph - N/A   Clear
8:53 AM 55.0 °F - 36.0 °F 49% 29.99 in 10.0 mi North 8.1 mph - N/A   Clear
9:53 AM 63.0 °F - 32.0 °F 31% 30.00 in 10.0 mi NNE 10.4 mph - N/A   Clear
10:53 AM 69.1 °F - 28.0 °F 22% 30.01 in 10.0 mi NE 6.9 mph - N/A   Clear
11:53 AM 72.0 °F - 21.9 °F 15% 30.02 in 10.0 mi NNE 10.4 mph - N/A   Clear
12:53 PM 72.0 °F - 21.9 °F 15% 30.00 in 10.0 mi North 11.5 mph - N/A   Clear
1:53 PM 72.0 °F - 24.1 °F 17% 29.98 in 10.0 mi North 8.1 mph - N/A   Clear
2:53 PM 72.0 °F - 24.1 °F 17% 29.96 in 10.0 mi Variable 4.6 mph - N/A   Clear
3:53 PM 73.0 °F - 25.0 °F 17% 29.95 in 10.0 mi NW 11.5 mph 17.3 mph N/A   Clear
4:53 PM 73.0 °F - 26.1 °F 17% 29.95 in 10.0 mi NW 8.1 mph - N/A   Clear
5:53 PM 71.1 °F - 26.1 °F 19% 29.94 in 10.0 mi NNW 6.9 mph - N/A   Clear
6:53 PM 64.0 °F - 30.0 °F 28% 29.95 in 10.0 mi NNW 5.8 mph - N/A   Clear
7:53 PM 63.0 °F - 30.0 °F 29% 29.98 in 10.0 mi NW 4.6 mph - N/A   Clear
8:53 PM 60.1 °F - 30.9 °F 33% 29.99 in 10.0 mi NW 3.5 mph - N/A   Clear
9:53 PM 52.0 °F - 34.0 °F 50% 29.99 in 10.0 mi Calm Calm - N/A   Clear
10:53 PM 48.9 °F - 37.0 °F 64% 29.99 in 10.0 mi WSW 3.5 mph - N/A   Clear
11:53 PM 48.0 °F - 37.9 °F 68% 29.98 in 10.0 mi Calm Calm - N/A   Clear